This demonstration page uses our WeatherBlox Daily Observations layout. Learn more.

Left ArrowRight Arrow

Hourly Observations for March 25, 2017

Temp ( °F °C ) Dew Point ( °F °C ) Humidity (%) Winds ( mph kmh ) Pressure ( in mb ) Visibility ( mi km ) Precip ( " mm )
12:53 am 00:53 Cloudy 66 18.9 54 12.2 65 65 SSW 5 7 30.12 1020 10 16 N/A
1:53 am 01:53 Clear 66 18.9 54 12.2 65 65 S 3 6 30.12 1020 10 16 N/A
2:53 am 02:53 Clear 64 17.8 53 11.7 68 68 VRB 5 7 30.10 1019 10 16 N/A
3:53 am 03:53 Clear 62 16.7 53 11.7 73 73 S 3 6 30.10 1019 10 16 N/A
4:53 am 04:53 Clear 63 17.2 52 11.1 68 68 N N/A 30.09 1019 10 16 N/A
5:53 am 05:53 Clear 60 15.6 51 10.6 72 72 SE 3 6 30.09 1019 10 16 N/A
6:53 am 06:53 Clear 59 15 51 10.6 75 75 SE 3 6 30.11 1020 10 16 N/A
7:53 am 07:53 Partly Cloudy 60 15.6 50 10 70 70 ESE 3 6 30.12 1020 10 16 N/A
8:53 am 08:53 Cloudy 63 17.2 50 10 63 63 N N/A 30.13 1020 10 16 N/A
9:53 am 09:53 Mostly Cloudy 67 19.4 50 10 55 55 VRB 6 9 30.13 1020 10 16 N/A
10:53 am 10:53 Mostly Cloudy 68 20 51 10.6 55 55 VRB 6 9 30.13 1020 10 16 N/A
11:53 am 11:53 Mostly Cloudy 70 21.1 51 10.6 51 51 VRB 3 6 30.11 1020 10 16 N/A
12:53 pm 12:53 Sunny 73 22.8 52 11.1 48 48 S 10 17 30.10 1019 10 16 N/A
1:53 pm 13:53 Sunny 75 23.9 52 11.1 45 45 SSW 8 13 30.08 1019 10 16 N/A
2:53 pm 14:53 Sunny 77 25 52 11.1 42 42 S 9 15 30.05 1018 10 16 N/A
3:53 pm 15:53 Sunny 78 25.6 52 11.1 40 40 SSE 8 13 30.02 1017 10 16 N/A
4:53 pm 16:53 Sunny 76 24.4 51 10.6 42 42 S 8 13 30.01 1016 10 16 N/A
5:53 pm 17:53 Sunny 75 23.9 52 11.1 45 45 SSE 8 13 30.01 1016 10 16 N/A
6:53 pm 18:53 Mostly Sunny 74 23.3 52 11.1 46 46 VRB 7 11 30.00 1016 10 16 N/A
7:53 pm 19:53 Sunny 73 22.8 52 11.1 48 48 ESE 5 7 30.00 1016 10 16 N/A
8:53 pm 20:53 Mostly Clear 68 20 52 11.1 57 57 ESE 3 6 30.01 1016 10 16 N/A
9:53 pm 21:53 Clear 62 16.7 51 10.6 67 67 ESE 3 6 30.02 1017 10 16 N/A
10:53 pm 22:53 Partly Cloudy 62 16.7 51 10.6 67 67 E 3 6 30.01 1016 10 16 N/A
11:53 pm 23:53 Clear 62 16.7 51 10.6 67 67 ESE 5 7 30.00 1016 10 16 N/A

Powered by AerisWeather